User: anonymous   Login
Location: Unspecified
(0.0000°N, 0.0000°E)
Time: 15:12:15
(UTC+00:00)
Language:

Tansei-1 - Orbit

View from above orbital plane
View from above orbital plane
View from above satellite
View from above satellite

Ground track
Ground track

The orbit data is extracted from the following two-line orbital elements,

1 04952U 71011A   18052.20928753  .00000075  00000-0  13561-4 0  9994
2 04952  29.6681  31.7233 0079784  32.1789  73.8807 13.58473639335629
Epoch (UTC): 21 February 2018 05:01:22
Eccentricity: 0.0079784
inclination: 29.6681°
perigee height: 982 km
apogee height: 1100 km
right ascension of ascending node: 31.7233°
argument of perigee: 32.1789°
revolutions per day: 13.58473639
mean anomaly at epoch: 73.8807°
orbit number at epoch: 33562

The dashed part of the orbit path shows where the satellite is in the earth's shadow,  

DLR